Retour au catalogue

USA 574

ActifMilitaireVLEO
NORAD 67486·PAYLOAD·🇺🇸 United States

Lancé Jan 17, 2026 depuis Vandenberg Space Force Base

Loading…

Prochains Passages (prochaines 24 heures)

TLE

PériméSource: Mike McCants

Époque: Aug 3, 2026, 20:36 UTC

1 67486U 26011C   26215.85882484 0.00000000  00000-0  00000-0 0    07
2 67486  70.0190 117.2993 0002000 304.0224  55.9776 14.96713302    04

Suivez USA 574 en temps réel avec AllMySat

Download on the App Store